Change the Weather History Date:

Thursday, February 27, 2014

  Actual Average Record
Temperature  
Mean Temperature 44 °F -  
Max Temperature 54 °F 45 °F 54 °F (2014)
Min Temperature 34 °F 32 °F 17 °F (2005)
Degree Days  
Heating Degree Days 21    
Moisture  
Dew Point 36 °F    
Average Humidity 76    
Maximum Humidity 100    
Minimum Humidity 40    
Precipitation  
Precipitation 0.00 in 0.06 in - ()
Sea Level Pressure  
Sea Level Pressure 29.97 in    
Wind  
Wind Speed 5 mph ()    
Max Wind Speed 17 mph    
Max Gust Speed -    
Visibility 4.6 miles    
Events Fog    
Averages and records for this station are not official NWS values.
T = Trace of Precipitation, MM = Missing Value Source: Averaged Metar Reports

Daily Weather History Graph

Daily Weather History Graph

Search for Another Location

Airport or City:

Trip Planner

Search our weather history database for the weather conditions in past years. The results will help you decide how hot, cold, wet, or windy it might be!

Date:

Astronomy

Feb. 27, 2014 Rise Set
Actual Time 7:12 AM CET 5:56 PM CET
Civil Twilight 6:38 AM CET 6:30 PM CET
Nautical Twilight 5:58 AM CET 7:10 PM CET
Astronomical Twilight 5:19 AM CET 7:50 PM CET
Moon 5:44 AM CET (2/27) 3:53 PM CET (2/27)
Length of Visible Light 11h 52m
Length of Day
10h 43m
Waning Crescent, 5% of the Moon is Illuminated
Feb 27
Waning Crescent
Mar 1
New
Mar 8
First Quarter
Mar 16
Full
Mar 24
Last Quarter

Hourly Weather History & Observations

Time (CET) Temp. Windchill Dew Point Humidity Pressure Visibility Wind Dir Wind Speed Gust Speed Precip Events Conditions
12:00 AM 39 °F - 38 °F 96% 30.11 in 7 mi NW 2.2 mph - -   Scattered Clouds
12:20 AM 39.2 °F - 39.2 °F 100% 30.09 in 5.0 mi Calm Calm - N/A   Unknown
12:50 AM 39.2 °F - 37.4 °F 93% 30.09 in 5.0 mi East 1.2 mph - N/A   Unknown
1:00 AM 38 °F - 38 °F 100% 30.11 in 5 mi East 2.2 mph - -   Mostly Cloudy
1:20 AM 39.2 °F - 37.4 °F 93% 30.06 in 4.3 mi Calm Calm - N/A Fog Shallow Fog
1:50 AM 37.4 °F - 35.6 °F 93% 30.09 in 4.3 mi Variable 2.3 mph - N/A   Unknown
2:00 AM 37 °F - 36 °F 96% 30.11 in 4 mi SW 2.2 mph - -   Mist
2:20 AM 37.4 °F - 35.6 °F 93% 30.09 in 4.3 mi West 1.2 mph - N/A   Unknown
2:50 AM 35.6 °F - 35.6 °F 100% 30.09 in 3.7 mi West 1.2 mph - N/A Fog Patches of Fog
3:00 AM 36 °F - 36 °F 100% 30.12 in 4 mi West 2.2 mph - - Fog Light Fog
3:20 AM 35.6 °F - 35.6 °F 100% 30.09 in 0.4 mi Calm Calm - N/A Fog Fog
3:50 AM 33.8 °F - 33.8 °F 100% 30.06 in 0.6 mi Variable 2.3 mph - N/A Fog Fog
4:20 AM 35.6 °F - 35.6 °F 100% 30.06 in 1.2 mi Variable 2.3 mph - N/A   Mist
4:50 AM 35.6 °F - 35.6 °F 100% 30.06 in 1.6 mi SE 1.2 mph - N/A   Scattered Clouds
5:00 AM 36 °F - 36 °F 100% 30.10 in 2 mi SSE 2.2 mph - - Fog Light Fog
5:20 AM 35.6 °F - 35.6 °F 100% 30.06 in 1.6 mi Calm Calm - N/A   Mostly Cloudy
5:50 AM 35.6 °F - 35.6 °F 100% 30.06 in 1.6 mi Calm Calm - N/A Fog Fog
6:00 AM 35 °F - 35 °F 100% 30.10 in 2 mi Calm Calm - - Fog Shallow Fog
6:20 AM 35.6 °F - 35.6 °F 100% 30.06 in 0.6 mi SSE 2.3 mph - N/A Fog Fog
6:50 AM 35.6 °F 32.8 °F 35.6 °F 100% 30.06 in 0.9 mi SSE 3.5 mph - N/A Fog Fog
7:00 AM 36 °F - 36 °F 100% 30.09 in 1 mi SSE 4.5 mph - - Fog Shallow Fog
7:20 AM 37.4 °F 34.9 °F 35.6 °F 93% 30.06 in 1.1 mi SSE 3.5 mph - N/A Fog Patches of Fog
7:50 AM 35.6 °F - 35.6 °F 100% 30.06 in 1.1 mi Variable 2.3 mph - N/A Fog Patches of Fog
8:00 AM 36 °F - 36 °F 99% 30.08 in 0 mi SSE 2.2 mph - - Fog Patches of Fog
8:20 AM 37.4 °F - 37.4 °F 100% 30.06 in 0.9 mi South 2.3 mph - N/A Fog Shallow Fog
8:50 AM 37.4 °F - 37.4 °F 100% 30.06 in 0.9 mi Variable 1.2 mph - N/A Fog Shallow Fog
9:00 AM 36 °F - 36 °F 99% 30.08 in 1 mi SW 2.2 mph - - Fog Light Fog
9:20 AM 41.0 °F - 39.2 °F 93% 30.06 in 1.1 mi Variable 2.3 mph - N/A Fog Fog
9:50 AM 42.8 °F - 41.0 °F 93% 30.06 in 3.1 mi SW 1.2 mph - N/A   Partly Cloudy
10:20 AM 46.4 °F 43.5 °F 41.0 °F 81% 30.04 in 5.0 mi SSW 5.8 mph - N/A   Scattered Clouds
10:50 AM 48.2 °F - 39.2 °F 71% 30.04 in 5.0 mi SSW 6.9 mph - N/A   Partly Cloudy
11:00 AM 48 °F - 40 °F 64% 30.05 in 5 mi South 6.7 mph - -   Scattered Clouds
11:20 AM 50.0 °F - 39.2 °F 66% 30.04 in 5.0 mi South 8.1 mph - N/A   Partly Cloudy
11:50 AM 50.0 °F - 37.4 °F 62% 30.01 in 6.2 mi South 10.4 mph - N/A   Partly Cloudy
12:00 PM 49 °F - 38 °F 56% 30.02 in 6 mi South 11.2 mph - -   Scattered Clouds
12:20 PM 51.8 °F - 39.2 °F 62% 29.98 in 6.2 mi SSW 9.2 mph - N/A   Partly Cloudy
12:50 PM 51.8 °F - 39.2 °F 62% 29.98 in 6.2 mi South 10.4 mph - N/A   Partly Cloudy
1:00 PM 52 °F - 39 °F 50% 29.98 in 6 mi South 11.2 mph - -   Partly Cloudy
1:20 PM 50.0 °F - 39.2 °F 66% 29.95 in 6.2 mi South 11.5 mph - N/A   Partly Cloudy
1:50 PM 53.6 °F - 39.2 °F 58% 29.92 in 6.2 mi SSE 12.7 mph - N/A   Scattered Clouds
2:00 PM 53 °F - 39 °F 49% 29.94 in 7 mi SSE 13.4 mph - -   Scattered Clouds
2:20 PM 53.6 °F - 35.6 °F 51% 29.92 in 6.2 mi South 16.1 mph - N/A   Scattered Clouds
2:50 PM 51.8 °F - 35.6 °F 54% 29.89 in 6.2 mi South 13.8 mph - N/A   Scattered Clouds
3:00 PM 52 °F - 36 °F 43% 29.91 in 7 mi South 13.4 mph - -   Scattered Clouds
3:20 PM 51.8 °F - 35.6 °F 54% 29.89 in 6.2 mi South 17.3 mph - N/A   Scattered Clouds
3:50 PM 50.0 °F - 37.4 °F 62% 29.89 in 6.2 mi SSE 16.1 mph - N/A   Scattered Clouds
4:20 PM 50.0 °F - 37.4 °F 62% 29.86 in 6.2 mi South 13.8 mph - N/A   Scattered Clouds
4:50 PM 50.0 °F - 33.8 °F 54% 29.86 in 6.2 mi South 16.1 mph - N/A   Scattered Clouds
5:00 PM 51 °F - 34 °F 40% 29.87 in 7 mi South 15.7 mph - -   Scattered Clouds
5:20 PM 48.2 °F - 33.8 °F 58% 29.86 in 6.2 mi South 15.0 mph - N/A   Scattered Clouds
5:50 PM 48.2 °F - 33.8 °F 58% 29.86 in 6.2 mi South 12.7 mph - N/A   Scattered Clouds
6:00 PM 48 °F - 33 °F 45% 29.86 in 7 mi South 11.2 mph - -   Scattered Clouds
6:20 PM 46.4 °F 41.5 °F 33.8 °F 62% 29.86 in 6.2 mi South 10.4 mph - N/A   Scattered Clouds
6:50 PM 46.4 °F 41.1 °F 32.0 °F 57% 29.83 in 6.2 mi South 11.5 mph - N/A   Scattered Clouds
7:00 PM 46 °F - 33 °F 49% 29.86 in 7 mi South 11.2 mph - -   Scattered Clouds
7:20 PM 46.4 °F 41.5 °F 33.8 °F 62% 29.83 in 6.2 mi South 10.4 mph - N/A   Scattered Clouds
7:50 PM 44.6 °F 39.7 °F 33.8 °F 66% 29.83 in 6.2 mi SSE 9.2 mph - N/A   Scattered Clouds
8:00 PM 44 °F - 35 °F 61% 29.85 in 7 mi SSE 8.9 mph - -   Scattered Clouds
8:20 PM 44.6 °F 38.8 °F 33.8 °F 66% 29.83 in 6.2 mi SSE 11.5 mph - N/A   Scattered Clouds
8:50 PM 44.6 °F 39.2 °F 33.8 °F 66% 29.83 in 6.2 mi South 10.4 mph - N/A   Mostly Cloudy
9:00 PM 44 °F - 34 °F 58% 29.84 in 7 mi South 11.2 mph - -   Scattered Clouds
9:20 PM 44.6 °F 38.8 °F 33.8 °F 66% 29.83 in 6.2 mi South 11.5 mph - N/A   Mostly Cloudy
9:50 PM 44.6 °F 40.2 °F 32.0 °F 61% 29.80 in 6.2 mi South 8.1 mph - N/A   Scattered Clouds
10:20 PM 42.8 °F 39.3 °F 32.0 °F 66% 29.80 in 6.2 mi South 5.8 mph - N/A   Mostly Cloudy
10:50 PM 42.8 °F 40.1 °F 32.0 °F 66% 29.80 in 6.2 mi South 4.6 mph - N/A   Mostly Cloudy
11:00 PM 43 °F - 33 °F 57% 29.82 in 7 mi South 4.5 mph - -   Scattered Clouds
11:20 PM 42.8 °F 40.1 °F 33.8 °F 70% 29.80 in 6.2 mi South 4.6 mph - N/A   Scattered Clouds
11:50 PM 42.8 °F 40.1 °F 33.8 °F 70% 29.77 in 6.2 mi South 4.6 mph - N/A   Mostly Cloudy